AXB2891 VASU-VOBL

Flight info

Callsign AXB2891
Flight time N/A
Altitude 39000
Route BOFIN R458 BBB Q9 RIKBU
Aircraft B38M/M-SDE1FGHILORVWXY/HB1

Departure

Time 2026-05-04 16:44
Airport Surat International Airport (VASU)

Arrival

Time N/A
Airport Kempegowda International Airport Bengaluru (VOBL)
Time Latitude Longitude Altitude Speed Heading
2026-05-04 16:18 21.12003 72.74338 19 ft 0 kts 315°
2026-05-04 16:34 21.11999 72.74342 -3 ft 4 kts 315°
2026-05-04 16:35 21.11943 72.74397 19 ft 4 kts 344°
2026-05-04 16:35 21.11929 72.74398 21 ft 0 kts 12°
2026-05-04 16:39 21.11969 72.74411 19 ft 10 kts 25°
2026-05-04 16:39 21.12090 72.74525 19 ft 11 kts 45°
2026-05-04 16:40 21.12032 72.74638 19 ft 12 kts 131°
2026-05-04 16:40 21.12005 72.74762 19 ft 11 kts 41°
2026-05-04 16:41 21.12131 72.74886 20 ft 14 kts 43°
2026-05-04 16:41 21.12389 72.75143 22 ft 20 kts 43°
2026-05-04 16:42 21.12506 72.75260 20 ft 7 kts 221°
2026-05-04 16:43 21.12497 72.75251 21 ft 2 kts 222°
2026-05-04 16:43 21.12057 72.74813 21 ft 104 kts 223°
2026-05-04 16:43 21.11390 72.74148 32 ft 154 kts 223°
2026-05-04 16:44 21.08060 72.71117 2584 ft 168 kts 213°
2026-05-04 16:45 21.05717 72.69712 3186 ft 218 kts 213°
2026-05-04 16:46 21.01417 72.66858 4565 ft 261 kts 215°
2026-05-04 16:46 20.98313 72.64723 5817 ft 271 kts 216°
2026-05-04 16:47 20.95105 72.62495 7126 ft 277 kts 216°
2026-05-04 16:47 20.91823 72.60209 8453 ft 284 kts 216°
2026-05-04 16:48 20.86750 72.56675 10176 ft 304 kts 215°
2026-05-04 16:48 20.84938 72.55414 10517 ft 317 kts 215°
2026-05-04 16:49 20.81191 72.52806 11710 ft 325 kts 216°
2026-05-04 16:49 20.77343 72.50130 13104 ft 332 kts 216°
2026-05-04 16:50 20.73415 72.47419 14439 ft 341 kts 212°
2026-05-04 16:50 20.68746 72.46579 15756 ft 358 kts 172°
2026-05-04 16:51 20.63831 72.47812 17009 ft 366 kts 169°
2026-05-04 16:51 20.61354 72.48444 17631 ft 370 kts 169°
2026-05-04 16:51 20.56294 72.49746 18773 ft 376 kts 169°
2026-05-04 16:52 20.51158 72.51070 19842 ft 382 kts 169°
2026-05-04 16:52 20.48596 72.51730 20378 ft 384 kts 169°
2026-05-04 16:53 20.43360 72.53079 21445 ft 390 kts 169°
2026-05-04 16:53 20.35366 72.55136 23003 ft 398 kts 169°
2026-05-04 16:54 20.32660 72.55832 23493 ft 401 kts 169°
2026-05-04 16:55 20.21656 72.58659 25180 ft 412 kts 170°
2026-05-04 16:55 20.16079 72.60090 25980 ft 417 kts 170°
2026-05-04 16:56 20.10389 72.61549 26759 ft 422 kts 170°
2026-05-04 16:56 20.01771 72.63757 27884 ft 429 kts 171°
2026-05-04 16:57 19.98857 72.64503 28234 ft 432 kts 171°
2026-05-04 16:57 19.92973 72.66009 28942 ft 437 kts 171°
2026-05-04 16:58 19.84014 72.68299 29935 ft 444 kts 171°
2026-05-04 16:58 19.81004 72.69068 30208 ft 446 kts 171°
2026-05-04 16:59 19.74970 72.70609 30757 ft 450 kts 171°
2026-05-04 17:00 19.62672 72.73745 31806 ft 458 kts 170°
2026-05-04 17:00 19.53350 72.76118 32560 ft 463 kts 170°
2026-05-04 17:01 19.47047 72.77722 33028 ft 467 kts 170°
2026-05-04 17:01 19.42835 72.78792 33341 ft 469 kts 170°
2026-05-04 17:02 19.38321 72.79939 33670 ft 471 kts 170°
2026-05-04 17:02 19.31906 72.81568 34083 ft 475 kts 169°
2026-05-04 17:03 19.28722 72.82376 34267 ft 476 kts 169°
2026-05-04 17:03 19.25483 72.83197 34481 ft 477 kts 169°
2026-05-04 17:03 19.19028 72.84833 34971 ft 477 kts 169°
2026-05-04 17:04 19.12614 72.86458 35519 ft 475 kts 169°
2026-05-04 17:04 19.06188 72.88087 36022 ft 474 kts 169°
2026-05-04 17:05 18.99762 72.89717 36521 ft 473 kts 169°
2026-05-04 17:05 18.93349 72.91343 37011 ft 472 kts 169°
2026-05-04 17:06 18.87005 72.92950 37493 ft 471 kts 169°
2026-05-04 17:06 18.83811 72.93758 37746 ft 471 kts 169°
2026-05-04 17:07 18.77429 72.95373 38206 ft 470 kts 169°
2026-05-04 17:07 18.75322 72.95906 38349 ft 469 kts 169°
2026-05-04 17:07 18.71106 72.96972 38609 ft 469 kts 168°
2026-05-04 17:07 18.67930 72.97774 38783 ft 468 kts 169°
2026-05-04 17:08 18.58445 73.00168 38865 ft 464 kts 168°
2026-05-04 17:09 18.52184 73.01747 38866 ft 464 kts 168°
2026-05-04 17:09 18.45872 73.03338 38867 ft 464 kts 168°
2026-05-04 17:10 18.30214 73.07279 38866 ft 463 kts 168°
2026-05-04 17:11 18.23975 73.08847 38876 ft 463 kts 168°
2026-05-04 17:12 18.14566 73.11210 38871 ft 463 kts 168°
2026-05-04 17:13 17.99971 73.14871 38877 ft 462 kts 168°
2026-05-04 17:14 17.87500 73.17993 38876 ft 461 kts 168°
2026-05-04 17:15 17.77104 73.20593 38879 ft 461 kts 168°
2026-05-04 17:15 17.72156 73.22626 38873 ft 462 kts 146°
2026-05-04 17:16 17.67379 73.27205 38879 ft 467 kts 136°
2026-05-04 17:17 17.58316 73.36914 38895 ft 466 kts 135°
2026-05-04 17:18 17.49294 73.46678 38902 ft 465 kts 135°
2026-05-04 17:19 17.40323 73.56371 38911 ft 464 kts 135°
2026-05-04 17:20 17.31351 73.66051 38920 ft 463 kts 135°
2026-05-04 17:20 17.24600 73.73325 38924 ft 463 kts 135°
2026-05-04 17:21 17.15647 73.82959 38932 ft 463 kts 136°
2026-05-04 17:22 17.11156 73.87787 38931 ft 463 kts 136°
2026-05-04 17:23 17.02187 73.97419 38930 ft 462 kts 136°
2026-05-04 17:24 16.95458 74.04634 38940 ft 461 kts 135°
2026-05-04 17:25 16.86767 74.14429 38943 ft 461 kts 130°
2026-05-04 17:26 16.78816 74.24901 38939 ft 460 kts 129°
2026-05-04 17:27 16.68895 74.37988 38938 ft 460 kts 129°
2026-05-04 17:28 16.60934 74.48472 38940 ft 460 kts 129°
2026-05-04 17:29 16.49018 74.64135 38937 ft 460 kts 130°
2026-05-04 17:31 16.39043 74.77218 38933 ft 461 kts 130°
2026-05-04 17:32 16.29084 74.90256 38930 ft 461 kts 130°
2026-05-04 17:33 16.21110 75.00678 38933 ft 461 kts 130°
2026-05-04 17:34 16.13115 75.11112 38929 ft 460 kts 130°
2026-05-04 17:35 16.03165 75.24076 38930 ft 459 kts 130°
2026-05-04 17:36 15.99191 75.29248 38930 ft 458 kts 130°
2026-05-04 17:36 15.95208 75.34429 38932 ft 458 kts 130°
2026-05-04 17:37 15.91215 75.39618 38933 ft 458 kts 130°
2026-05-04 17:37 15.87246 75.44772 38928 ft 459 kts 130°
2026-05-04 17:38 15.83272 75.49930 38931 ft 458 kts 130°
2026-05-04 17:38 15.79281 75.55104 38934 ft 459 kts 130°
2026-05-04 17:39 15.73273 75.62889 38935 ft 459 kts 130°
2026-05-04 17:39 15.69291 75.68043 38937 ft 460 kts 130°
2026-05-04 17:40 15.65300 75.73206 38937 ft 460 kts 130°
2026-05-04 17:40 15.61285 75.78397 38931 ft 460 kts 130°
2026-05-04 17:41 15.57271 75.83583 38937 ft 460 kts 130°
2026-05-04 17:41 15.53276 75.88740 38935 ft 460 kts 130°
2026-05-04 17:42 15.49256 75.93926 38935 ft 460 kts 130°
2026-05-04 17:42 15.45267 75.99068 38934 ft 460 kts 131°
2026-05-04 17:43 15.41261 76.04229 38934 ft 459 kts 131°
2026-05-04 17:43 15.37275 76.09361 38929 ft 459 kts 131°
2026-05-04 17:44 15.33260 76.14526 38931 ft 458 kts 131°
2026-05-04 17:44 15.29262 76.19666 38926 ft 458 kts 131°
2026-05-04 17:45 15.25263 76.24805 38924 ft 457 kts 131°
2026-05-04 17:45 15.21287 76.29912 38927 ft 457 kts 131°
2026-05-04 17:46 15.17233 76.34997 38918 ft 455 kts 139°
2026-05-04 17:46 15.12161 76.38747 38920 ft 452 kts 148°
2026-05-04 17:47 15.09530 76.40528 38389 ft 450 kts 149°
2026-05-04 17:47 15.06884 76.42290 37606 ft 452 kts 149°
2026-05-04 17:47 15.04230 76.44040 37061 ft 449 kts 149°
2026-05-04 17:47 15.01633 76.45744 36611 ft 445 kts 149°
2026-05-04 17:48 14.99027 76.47452 36107 ft 442 kts 149°
2026-05-04 17:48 14.96430 76.49152 35577 ft 440 kts 149°
2026-05-04 17:48 14.93839 76.50849 35054 ft 439 kts 149°
2026-05-04 17:48 14.91280 76.52523 34541 ft 438 kts 149°
2026-05-04 17:49 14.88697 76.54213 34030 ft 437 kts 149°
2026-05-04 17:49 14.86129 76.55892 33460 ft 437 kts 149°
2026-05-04 17:49 14.83555 76.57575 32918 ft 435 kts 149°
2026-05-04 17:49 14.80994 76.59249 32420 ft 433 kts 149°
2026-05-04 17:50 14.78444 76.60915 31922 ft 431 kts 149°
2026-05-04 17:50 14.75937 76.62553 31432 ft 430 kts 149°
2026-05-04 17:50 14.73410 76.64203 30940 ft 429 kts 149°
2026-05-04 17:50 14.70888 76.65850 30451 ft 427 kts 149°
2026-05-04 17:51 14.68376 76.67490 29966 ft 426 kts 149°
2026-05-04 17:51 14.65866 76.69127 29418 ft 425 kts 149°
2026-05-04 17:51 14.63363 76.70760 28925 ft 422 kts 149°
2026-05-04 17:51 14.60922 76.72352 28480 ft 419 kts 149°
2026-05-04 17:52 14.58454 76.73961 28030 ft 416 kts 149°
2026-05-04 17:52 14.56008 76.75556 27581 ft 414 kts 149°
2026-05-04 17:52 14.53582 76.77136 27138 ft 411 kts 149°
2026-05-04 17:52 14.51161 76.78714 26700 ft 408 kts 149°
2026-05-04 17:53 14.48780 76.80264 26274 ft 400 kts 149°
2026-05-04 17:53 14.46476 76.81765 25866 ft 394 kts 149°
2026-05-04 17:53 14.44178 76.83260 25460 ft 387 kts 149°
2026-05-04 17:53 14.41911 76.84736 25066 ft 381 kts 150°
2026-05-04 17:54 14.39681 76.86187 24669 ft 376 kts 150°
2026-05-04 17:54 14.37484 76.87616 24284 ft 370 kts 150°
2026-05-04 17:54 14.35315 76.89027 23912 ft 365 kts 150°